Date String (YYYY-MM-DD hh:mm:ss) UTC,Instrument flags,absolute air pressure of the measurement (hPa),sample flow rate (lpm),inlet stack bypass flow (lpm),air temperature of the measurement (°C),ambient temperature measured by the external sensor (°C),aerosol sample conditioner tube jacket temperature (°C),OPC LED temperature (°C),internal box temperature (°C),relative humidity of the measurement (%),span deviation,mass concentration of particles derived from Lorenz-Mie calculation of OPC scattering (μg/m³),mass concentration of particles derived from Lorenz-Mie calculation of OPC scattering (μg/m³),mass concentration of particles derived from Lorenz-Mie calculation of OPC scattering (μg/m³)
DateTimeUTC,F1_M11,P_M11,Q1_M11,Q2_M11,T1_M11,T2_M11,T3_M11,T4_M11,T5_M11,U1_M11,ZSPAN_M11,X0_M11,X2_M11,X1_M11
2023-12-21 22:00:00,SystemResetWarning,0831.3,4.99,000.00,025.7,022.9,000.0,033.9,026.8,13.4,0000.0,0009.67,0004.00,0003.37
2023-12-21 22:01:00,SystemResetWarning,0831.3,5.00,000.00,025.7,023.3,000.0,033.9,026.8,13.4,0000.0,0009.29,0004.03,0003.36
2023-12-21 22:02:00,SystemResetWarning,0831.3,4.99,000.00,025.7,023.6,000.0,033.9,027.0,13.3,0000.0,0009.49,0004.06,0003.35
2023-12-21 22:03:00,SystemResetWarning,0831.4,5.01,000.00,025.7,023.9,000.0,033.9,027.1,13.4,0000.0,0009.85,0004.06,0003.34
2023-12-21 22:04:00,SystemResetWarning,0831.4,5.01,000.00,025.7,024.1,000.0,033.9,027.1,13.3,0000.0,0010.03,0004.04,0003.34
2023-12-21 22:05:00,SystemResetWarning,0831.4,4.99,000.00,025.7,024.4,000.0,033.9,027.2,13.2,0000.0,0010.47,0004.07,0003.34
2023-12-21 22:06:00,SystemResetWarning,0831.4,4.99,000.00,025.8,024.6,000.0,033.9,027.3,13.2,0000.0,0010.87,0004.09,0003.34
2023-12-21 22:07:00,SystemResetWarning,0831.4,5.01,000.00,025.8,024.7,000.0,033.9,027.3,13.2,0000.0,0011.00,0004.10,0003.33
2023-12-21 22:08:00,SystemResetWarning,0831.4,5.00,000.00,025.8,024.8,000.0,033.9,027.4,13.2,0000.0,0011.03,0004.10,0003.34
2023-12-21 22:09:00,SystemResetWarning,0831.4,5.01,000.00,025.9,025.0,000.0,033.9,027.5,13.1,0000.0,0011.27,0004.07,0003.34
2023-12-21 22:10:00,SystemResetWarning,0831.4,5.00,000.00,025.9,025.1,000.0,033.9,027.5,13.2,0000.0,0010.67,0004.06,0003.34
2023-12-21 22:11:00,SystemResetWarning,0831.4,5.00,000.00,026.0,025.2,000.0,034.0,027.6,13.2,0000.0,0010.52,0004.03,0003.33
2023-12-21 22:12:00,SystemResetWarning,0831.4,5.00,000.00,026.0,025.1,000.0,034.0,027.7,13.1,0000.0,0010.35,0003.99,0003.33
2023-12-21 22:13:00,SystemResetWarning,0831.4,4.98,000.00,026.0,023.5,000.0,034.0,027.5,13.2,0000.0,0010.34,0003.97,0003.33
2023-12-21 22:14:00,SystemResetWarning,0831.4,5.02,000.00,025.9,022.5,000.0,034.0,027.3,13.2,0000.0,0010.40,0004.00,0003.32
2023-12-21 22:15:00,SystemResetWarning,0831.4,5.00,000.00,025.8,022.5,000.0,033.9,026.9,13.2,0000.0,0010.26,0004.01,0003.32
2023-12-21 22:16:00,SystemResetWarning,0831.4,5.00,000.00,025.7,022.9,000.0,033.9,026.7,13.4,0000.0,0010.02,0003.99,0003.32
2023-12-21 22:17:00,SystemResetWarning,0831.4,5.00,000.00,025.6,023.2,000.0,033.9,026.8,13.5,0000.0,0009.97,0003.99,0003.32
2023-12-21 22:18:00,SystemResetWarning,0831.4,5.00,000.00,025.6,023.6,000.0,033.9,026.9,13.4,0000.0,0010.61,0004.03,0003.34
2023-12-21 22:19:00,SystemResetWarning,0831.5,4.98,000.00,025.7,023.9,000.0,033.9,027.0,13.5,0000.0,0010.47,0004.01,0003.35
2023-12-21 22:20:00,SystemResetWarning,0831.5,5.00,000.00,025.7,024.1,000.0,033.9,027.1,13.5,0000.0,0009.99,0004.03,0003.35
2023-12-21 22:21:00,SystemResetWarning,0831.5,5.02,000.00,025.7,024.3,000.0,033.9,027.2,13.5,0000.0,0009.99,0004.03,0003.36
2023-12-21 22:22:00,SystemResetWarning,0831.5,4.99,000.00,025.8,024.5,000.0,033.9,027.3,13.5,0000.0,0010.26,0004.09,0003.37
2023-12-21 22:23:00,SystemResetWarning,0831.5,4.99,000.00,025.8,024.7,000.0,033.9,027.4,13.4,0000.0,0010.55,0004.10,0003.37
2023-12-21 22:24:00,SystemResetWarning,0831.5,5.01,000.00,025.8,024.8,000.0,033.9,027.4,13.3,0000.0,0010.55,0004.08,0003.37
2023-12-21 22:25:00,SystemResetWarning,0831.6,5.01,000.00,025.9,024.9,000.0,033.9,027.5,13.3,0000.0,0010.53,0004.04,0003.37
2023-12-21 22:26:00,SystemResetWarning,0831.6,5.00,000.00,025.9,025.0,000.0,033.9,027.5,13.2,0000.0,0010.76,0004.07,0003.38
2023-12-21 22:27:00,SystemResetWarning,0831.5,5.00,000.00,026.0,025.2,000.0,034.0,027.6,13.3,0000.0,0011.10,0004.10,0003.40
2023-12-21 22:28:00,SystemResetWarning,0831.6,4.99,000.00,026.0,025.1,000.0,034.0,027.6,13.3,0000.0,0011.21,0004.15,0003.44
2023-12-21 22:29:00,SystemResetWarning,0831.6,4.97,000.00,026.0,023.5,000.0,034.0,027.5,13.3,0000.0,0010.50,0004.19,0003.48
2023-12-21 22:30:00,SystemResetWarning,0831.6,5.02,000.00,025.9,022.5,000.0,034.0,027.3,13.4,0000.0,0011.44,0004.29,0003.53
2023-12-21 22:31:00,SystemResetWarning,0831.6,5.00,000.00,025.8,022.5,000.0,033.9,026.9,13.5,0000.0,0012.04,0004.39,0003.60
2023-12-21 22:32:00,SystemResetWarning,0831.6,5.00,000.00,025.7,022.8,000.0,033.9,026.7,13.6,0000.0,0012.21,0004.47,0003.68
2023-12-21 22:33:00,SystemResetWarning,0831.6,5.00,000.00,025.7,023.2,000.0,033.9,026.9,13.7,0000.0,0012.96,0004.53,0003.77
2023-12-21 22:34:00,SystemResetWarning,0831.7,5.00,000.00,025.7,023.6,000.0,033.9,027.0,13.7,0000.0,0014.10,0004.66,0003.88
2023-12-21 22:35:00,SystemResetWarning,0831.7,4.99,000.00,025.7,023.9,000.0,033.9,027.1,13.7,0000.0,0014.83,0004.78,0003.98
2023-12-21 22:36:00,SystemResetWarning,0831.7,4.99,000.00,025.7,024.1,000.0,033.9,027.2,13.8,0000.0,0015.61,0004.96,0004.10
2023-12-21 22:37:00,SystemResetWarning,0831.7,5.01,000.00,025.7,024.3,000.0,033.9,027.2,13.7,0000.0,0015.74,0005.09,0004.21
2023-12-21 22:38:00,SystemResetWarning,0831.8,5.00,000.00,025.8,024.5,000.0,033.9,027.3,13.6,0000.0,0016.15,0005.22,0004.30
2023-12-21 22:39:00,SystemResetWarning,0832.0,5.01,000.00,025.8,024.7,000.0,033.9,027.4,13.6,0000.0,0016.04,0005.32,0004.39
2023-12-21 22:40:00,SystemResetWarning,0832.2,5.00,000.00,025.8,024.8,000.0,033.9,027.5,13.5,0000.0,0016.76,0005.46,0004.47
2023-12-21 22:41:00,SystemResetWarning,0832.3,4.98,000.00,025.9,025.0,000.0,033.9,027.5,13.4,0000.0,0016.24,0005.54,0004.51
2023-12-21 22:42:00,SystemResetWarning,0831.9,5.00,000.00,026.0,025.1,000.0,034.0,027.6,13.4,0000.0,0015.92,0005.58,0004.55
2023-12-21 22:43:00,SystemResetWarning,0831.9,5.00,000.00,026.0,024.2,000.0,034.0,027.6,13.4,0000.0,0015.89,0005.60,0004.57
2023-12-21 22:44:00,SystemResetWarning,0832.1,5.01,000.00,025.9,022.6,000.0,034.0,027.3,13.5,0000.0,0015.19,0005.66,0004.60
2023-12-21 22:45:00,SystemResetWarning,0832.2,5.01,000.00,025.8,022.4,000.0,033.9,027.1,13.5,0000.0,0013.99,0005.66,0004.64
2023-12-21 22:46:00,SystemResetWarning,0832.0,4.99,000.00,025.7,022.7,000.0,033.9,026.8,13.7,0000.0,0013.60,0005.74,0004.70
2023-12-21 22:47:00,SystemResetWarning,0831.9,5.00,000.00,025.6,023.1,000.0,033.9,026.8,13.7,0000.0,0012.62,0005.76,0004.74
2023-12-21 22:48:00,SystemResetWarning,0831.8,5.01,000.00,025.6,023.4,000.0,033.9,026.9,13.7,0000.0,0013.05,0005.79,0004.79
2023-12-21 22:49:00,SystemResetWarning,0831.9,5.00,000.00,025.6,023.7,000.0,033.8,027.0,13.7,0000.0,0013.21,0005.79,0004.84
2023-12-21 22:50:00,SystemResetWarning,0831.9,4.98,000.00,025.6,024.0,000.0,033.8,027.1,13.7,0000.0,0013.46,0005.82,0004.87
2023-12-21 22:51:00,SystemResetWarning,0831.9,5.02,000.00,025.7,024.2,000.0,033.8,027.2,13.6,0000.0,0013.78,0005.79,0004.90
2023-12-21 22:52:00,SystemResetWarning,0831.9,5.00,000.00,025.7,024.4,000.0,033.9,027.3,13.6,0000.0,0014.87,0005.78,0004.94
2023-12-21 22:53:00,SystemResetWarning,0831.9,4.99,000.00,025.8,024.6,000.0,033.9,027.3,13.7,0000.0,0015.39,0005.84,0005.00
2023-12-21 22:54:00,SystemResetWarning,0831.9,5.00,000.00,025.8,024.8,000.0,033.9,027.4,13.6,0000.0,0015.47,0005.94,0005.07
2023-12-21 22:55:00,SystemResetWarning,0831.9,5.00,000.00,025.8,024.9,000.0,033.9,027.5,13.6,0000.0,0015.74,0005.94,0005.10
2023-12-21 22:56:00,SystemResetWarning,0832.0,5.00,000.00,025.9,025.0,000.0,033.9,027.5,13.5,0000.0,0017.12,0005.99,0005.13
2023-12-21 22:57:00,SystemResetWarning,0832.0,4.99,000.00,025.9,024.8,000.0,033.9,027.6,13.5,0000.0,0018.22,0006.01,0005.17
2023-12-21 22:58:00,SystemResetWarning,0831.9,5.01,000.00,025.9,023.1,000.0,033.9,027.4,13.5,0000.0,0018.70,0006.02,0005.20
2023-12-21 22:59:00,SystemResetWarning,0831.9,5.00,000.00,025.8,022.3,000.0,033.9,027.2,13.5,0000.0,0019.11,0006.00,0005.18
